Time,TemperatureF,DewpointF,PressureIn,WindDirection,WindDirectionDegrees,WindSpeedMPH,WindSpeedGustMPH,Humidity,HourlyPrecipIn,Conditions,Clouds,dailyrainin,SoftwareType,DateUTC
2013-03-31 00:09:00,46.0,24.0,30.06,SW,231,2.0,3.0,43,0.00,,,0.00,weatherlink.com 1.10,2013-03-31 04:09:00,
2013-03-31 00:25:00,46.1,25.0,30.06,SW,231,2.0,2.0,43,0.00,,,0.00,weatherlink.com 1.10,2013-03-31 04:25:00,
2013-03-31 00:40:00,46.2,25.0,30.05,SW,231,1.0,2.0,43,0.00,,,0.00,weatherlink.com 1.10,2013-03-31 04:40:00,
2013-03-31 00:55:00,46.0,24.0,30.05,SW,231,0.0,2.0,43,0.00,,,0.00,weatherlink.com 1.10,2013-03-31 04:55:00,
2013-03-31 01:10:00,45.8,24.0,30.05,SW,231,0.0,2.0,43,0.00,,,0.00,weatherlink.com 1.10,2013-03-31 05:10:00,
2013-03-31 01:25:00,45.6,24.0,30.04,ENE,57,0.0,3.0,43,0.00,,,0.00,weatherlink.com 1.10,2013-03-31 05:25:00,
2013-03-31 01:40:00,45.2,24.0,30.04,SE,134,0.0,2.0,44,0.00,,,0.00,weatherlink.com 1.10,2013-03-31 05:40:00,
2013-03-31 01:55:00,44.7,24.0,30.03,SE,134,1.0,1.0,45,0.00,,,0.00,weatherlink.com 1.10,2013-03-31 05:55:00,
2013-03-31 02:10:00,44.3,25.0,30.02,SSE,156,2.0,3.0,46,0.00,,,0.00,weatherlink.com 1.10,2013-03-31 06:10:00,
2013-03-31 02:25:00,44.4,25.0,30.02,ENE,61,0.0,2.0,47,0.00,,,0.00,weatherlink.com 1.10,2013-03-31 06:25:00,
2013-03-31 02:40:00,44.5,25.0,30.01,East,97,1.0,2.0,46,0.00,,,0.00,weatherlink.com 1.10,2013-03-31 06:40:00,
2013-03-31 02:55:00,44.5,25.0,30.00,ENE,76,0.0,4.0,47,0.00,,,0.00,weatherlink.com 1.10,2013-03-31 06:55:00,
2013-03-31 03:10:00,44.5,25.0,30.00,South,175,0.0,2.0,47,0.00,,,0.00,weatherlink.com 1.10,2013-03-31 07:10:00,
2013-03-31 03:25:00,44.0,25.0,30.00,NE,38,2.0,3.0,47,0.00,,,0.00,weatherlink.com 1.10,2013-03-31 07:25:00,
2013-03-31 03:40:00,44.5,25.0,29.99,NE,42,4.0,4.0,47,0.00,,,0.00,weatherlink.com 1.10,2013-03-31 07:40:00,
2013-03-31 03:55:00,45.2,25.0,29.98,NE,56,3.0,4.0,45,0.00,,,0.00,weatherlink.com 1.10,2013-03-31 07:55:00,
2013-03-31 04:10:00,44.7,25.0,29.97,ENE,63,1.0,3.0,47,0.00,,,0.00,weatherlink.com 1.10,2013-03-31 08:10:00,
2013-03-31 04:25:00,44.5,25.0,29.96,ENE,59,2.0,5.0,47,0.00,,,0.00,weatherlink.com 1.10,2013-03-31 08:25:00,
2013-03-31 04:40:00,44.8,26.0,29.96,East,84,1.0,3.0,48,0.00,,,0.00,weatherlink.com 1.10,2013-03-31 08:40:00,
2013-03-31 04:55:00,45.5,28.0,29.96,NE,42,1.0,8.0,51,0.00,,,0.00,weatherlink.com 1.10,2013-03-31 08:55:00,
2013-03-31 05:10:00,45.5,29.0,29.95,ESE,107,2.0,5.0,53,0.00,,,0.00,weatherlink.com 1.10,2013-03-31 09:10:00,
2013-03-31 05:25:00,45.8,30.0,29.94,NE,55,1.0,6.0,54,0.00,,,0.00,weatherlink.com 1.10,2013-03-31 09:25:00,
2013-03-31 05:40:00,45.5,30.0,29.94,East,98,1.0,3.0,55,0.00,,,0.00,weatherlink.com 1.10,2013-03-31 09:40:00,
2013-03-31 05:55:00,45.3,30.0,29.94,WSW,237,0.0,3.0,56,0.00,,,0.00,weatherlink.com 1.10,2013-03-31 09:55:00,
2013-03-31 06:10:00,45.2,30.0,29.94,SSE,167,0.0,3.0,56,0.00,,,0.00,weatherlink.com 1.10,2013-03-31 10:10:00,
2013-03-31 06:25:00,45.1,30.0,29.93,SE,142,1.0,2.0,56,0.00,,,0.00,weatherlink.com 1.10,2013-03-31 10:25:00,
2013-03-31 06:40:00,44.7,31.0,29.94,SSE,147,1.0,3.0,58,0.00,,,0.00,weatherlink.com 1.10,2013-03-31 10:40:00,
2013-03-31 06:55:00,45.8,31.0,29.94,NNE,30,2.0,5.0,57,0.00,,,0.00,weatherlink.com 1.10,2013-03-31 10:55:00,
2013-03-31 07:10:00,45.9,33.0,29.94,ESE,109,1.0,4.0,60,0.00,,,0.00,weatherlink.com 1.10,2013-03-31 11:10:00,
2013-03-31 07:25:00,44.2,34.0,29.93,ENE,57,1.0,6.0,68,0.00,,,0.00,weatherlink.com 1.10,2013-03-31 11:25:00,
2013-03-31 07:40:00,42.8,34.0,29.93,SSW,206,1.0,3.0,71,0.00,,,0.00,weatherlink.com 1.10,2013-03-31 11:40:00,
2013-03-31 07:55:00,42.9,33.0,29.93,SSW,206,0.0,2.0,68,0.00,,,0.00,weatherlink.com 1.10,2013-03-31 11:55:00,
2013-03-31 08:10:00,43.4,33.0,29.92,SSW,206,0.0,0.0,67,0.00,,,0.00,weatherlink.com 1.10,2013-03-31 12:10:00,
2013-03-31 08:25:00,43.6,34.0,29.91,SSW,206,0.0,0.0,69,0.00,,,0.00,weatherlink.com 1.10,2013-03-31 12:25:00,
2013-03-31 08:41:00,43.6,34.0,29.91,SSW,206,0.0,0.0,70,0.00,,,0.00,weatherlink.com 1.10,2013-03-31 12:41:00,
2013-03-31 08:56:00,43.8,35.0,29.91,ENE,63,2.0,2.0,71,0.00,,,0.00,weatherlink.com 1.10,2013-03-31 12:56:00,
2013-03-31 09:11:00,44.0,36.0,29.90,NE,53,5.0,8.0,73,0.00,,,0.00,weatherlink.com 1.10,2013-03-31 13:11:00,
2013-03-31 09:26:00,43.8,37.0,29.90,NE,55,2.0,7.0,76,0.01,,,0.01,weatherlink.com 1.10,2013-03-31 13:26:00,
2013-03-31 09:41:00,42.9,37.0,29.88,NE,55,3.0,5.0,80,0.01,,,0.01,weatherlink.com 1.10,2013-03-31 13:41:00,
2013-03-31 10:11:00,42.3,38.0,29.86,ESE,119,0.0,4.0,85,0.02,,,0.02,weatherlink.com 1.10,2013-03-31 14:11:00,
2013-03-31 10:26:00,42.3,38.0,29.85,ENE,63,1.0,9.0,86,0.01,,,0.02,weatherlink.com 1.10,2013-03-31 14:26:00,
2013-03-31 10:41:00,42.5,40.0,29.86,NE,49,3.0,7.0,89,0.01,,,0.02,weatherlink.com 1.10,2013-03-31 14:41:00,
2013-03-31 11:11:00,43.2,41.0,29.85,ENE,57,4.0,11.0,90,0.00,,,0.02,weatherlink.com 1.10,2013-03-31 15:11:00,
2013-03-31 11:26:00,43.1,41.0,29.84,NE,55,5.0,8.0,91,0.00,,,0.02,weatherlink.com 1.10,2013-03-31 15:26:00,
2013-03-31 11:41:00,43.2,41.0,29.83,NE,51,3.0,5.0,92,0.00,,,0.02,weatherlink.com 1.10,2013-03-31 15:41:00,
2013-03-31 11:56:00,43.4,41.0,29.82,NNE,30,2.0,5.0,92,0.01,,,0.03,weatherlink.com 1.10,2013-03-31 15:56:00,
2013-03-31 12:11:00,43.8,42.0,29.82,NE,49,4.0,5.0,92,0.01,,,0.03,weatherlink.com 1.10,2013-03-31 16:11:00,
2013-03-31 12:26:00,44.0,42.0,29.81,ENE,69,4.0,5.0,92,0.01,,,0.03,weatherlink.com 1.10,2013-03-31 16:26:00,
2013-03-31 12:41:00,44.2,42.0,29.79,NW,315,1.0,5.0,92,0.01,,,0.03,weatherlink.com 1.10,2013-03-31 16:41:00,
2013-03-31 12:56:00,44.4,42.0,29.79,NE,49,1.0,7.0,92,0.00,,,0.03,weatherlink.com 1.10,2013-03-31 16:56:00,
2013-03-31 13:11:00,44.5,42.0,29.78,NW,319,0.0,4.0,92,0.00,,,0.03,weatherlink.com 1.10,2013-03-31 17:11:00,
2013-03-31 13:26:00,44.7,43.0,29.78,NE,42,0.0,4.0,92,0.00,,,0.03,weatherlink.com 1.10,2013-03-31 17:26:00,
2013-03-31 13:41:00,44.8,43.0,29.77,NE,46,2.0,4.0,93,0.00,,,0.03,weatherlink.com 1.10,2013-03-31 17:41:00,
2013-03-31 13:56:00,45.1,43.0,29.76,SW,229,1.0,6.0,93,0.00,,,0.03,weatherlink.com 1.10,2013-03-31 17:56:00,
2013-03-31 14:11:00,45.1,43.0,29.75,NNE,30,4.0,7.0,93,0.00,,,0.03,weatherlink.com 1.10,2013-03-31 18:11:00,
2013-03-31 14:26:00,45.2,43.0,29.74,SW,215,8.0,10.0,93,0.00,,,0.03,weatherlink.com 1.10,2013-03-31 18:26:00,
2013-03-31 14:41:00,45.6,44.0,29.75,SE,126,3.0,8.0,93,0.00,,,0.03,weatherlink.com 1.10,2013-03-31 18:41:00,
2013-03-31 14:56:00,45.6,44.0,29.75,SSW,204,3.0,12.0,93,0.00,,,0.03,weatherlink.com 1.10,2013-03-31 18:56:00,
2013-03-31 15:11:00,45.7,44.0,29.74,SW,230,7.0,8.0,93,0.00,,,0.03,weatherlink.com 1.10,2013-03-31 19:11:00,
2013-03-31 15:26:00,45.9,44.0,29.75,SW,215,8.0,12.0,93,0.00,,,0.03,weatherlink.com 1.10,2013-03-31 19:26:00,
2013-03-31 15:42:00,46.0,44.0,29.74,SW,227,3.0,10.0,93,0.00,,,0.03,weatherlink.com 1.10,2013-03-31 19:42:00,
2013-03-31 15:56:00,46.4,45.0,29.75,SW,225,8.0,17.0,93,0.00,,,0.03,weatherlink.com 1.10,2013-03-31 19:56:00,
2013-03-31 16:11:00,46.9,45.0,29.74,SW,233,7.0,14.0,92,0.00,,,0.03,weatherlink.com 1.10,2013-03-31 20:11:00,
2013-03-31 16:27:00,47.5,45.0,29.74,WSW,237,9.0,16.0,92,0.00,,,0.03,weatherlink.com 1.10,2013-03-31 20:27:00,
2013-03-31 16:42:00,48.3,46.0,29.74,SW,214,10.0,17.0,91,0.00,,,0.03,weatherlink.com 1.10,2013-03-31 20:42:00,
2013-03-31 16:57:00,49.1,46.0,29.73,South,190,5.0,16.0,90,0.00,,,0.03,weatherlink.com 1.10,2013-03-31 20:57:00,
2013-03-31 17:12:00,49.8,46.0,29.74,SSW,195,7.0,14.0,88,0.00,,,0.03,weatherlink.com 1.10,2013-03-31 21:12:00,
2013-03-31 17:27:00,50.4,47.0,29.73,WSW,237,7.0,17.0,87,0.00,,,0.03,weatherlink.com 1.10,2013-03-31 21:27:00,
2013-03-31 17:42:00,50.6,46.0,29.72,South,190,7.0,21.0,85,0.00,,,0.03,weatherlink.com 1.10,2013-03-31 21:42:00,
2013-03-31 17:57:00,50.9,46.0,29.73,SW,221,3.0,19.0,84,0.00,,,0.03,weatherlink.com 1.10,2013-03-31 21:57:00,
2013-03-31 18:12:00,50.9,46.0,29.73,SW,223,5.0,14.0,84,0.00,,,0.03,weatherlink.com 1.10,2013-03-31 22:12:00,
2013-03-31 18:27:00,50.9,46.0,29.73,SW,217,7.0,14.0,84,0.00,,,0.03,weatherlink.com 1.10,2013-03-31 22:27:00,
2013-03-31 18:42:00,51.0,46.0,29.73,SSW,192,7.0,16.0,84,0.00,,,0.03,weatherlink.com 1.10,2013-03-31 22:42:00,
2013-03-31 18:57:00,51.0,46.0,29.73,SW,234,4.0,13.0,83,0.00,,,0.03,weatherlink.com 1.10,2013-03-31 22:57:00,
2013-03-31 19:27:00,50.8,46.0,29.73,SW,217,10.0,15.0,84,0.00,,,0.03,weatherlink.com 1.10,2013-03-31 23:27:00,
2013-03-31 19:42:00,50.6,46.0,29.73,SSE,165,4.0,16.0,84,0.00,,,0.03,weatherlink.com 1.10,2013-03-31 23:42:00,
2013-03-31 19:57:00,50.5,46.0,29.73,SW,215,9.0,19.0,84,0.00,,,0.03,weatherlink.com 1.10,2013-03-31 23:57:00,
2013-03-31 20:12:00,50.3,46.0,29.74,SSW,211,9.0,17.0,84,0.00,,,0.03,weatherlink.com 1.10,2013-04-01 00:12:00,
2013-03-31 20:27:00,50.2,46.0,29.74,SSW,198,7.0,17.0,84,0.00,,,0.03,weatherlink.com 1.10,2013-04-01 00:27:00,
2013-03-31 20:42:00,50.0,45.0,29.75,SE,144,1.0,10.0,84,0.00,,,0.03,weatherlink.com 1.10,2013-04-01 00:42:00,
2013-03-31 20:57:00,50.0,45.0,29.76,SE,137,3.0,12.0,84,0.00,,,0.03,weatherlink.com 1.10,2013-04-01 00:57:00,
2013-03-31 21:12:00,50.0,45.0,29.76,SW,225,7.0,15.0,84,0.00,,,0.03,weatherlink.com 1.10,2013-04-01 01:12:00,
2013-03-31 21:27:00,49.9,45.0,29.76,South,186,5.0,14.0,84,0.00,,,0.03,weatherlink.com 1.10,2013-04-01 01:27:00,
2013-03-31 21:42:00,49.9,45.0,29.76,South,186,2.0,10.0,83,0.00,,,0.03,weatherlink.com 1.10,2013-04-01 01:42:00,
2013-03-31 21:57:00,49.5,45.0,29.77,WNW,284,2.0,4.0,84,0.00,,,0.03,weatherlink.com 1.10,2013-04-01 01:57:00,
2013-03-31 22:12:00,49.4,45.0,29.76,WSW,250,1.0,9.0,84,0.00,,,0.03,weatherlink.com 1.10,2013-04-01 02:12:00,
2013-03-31 22:27:00,49.0,44.0,29.77,WSW,238,1.0,7.0,84,0.00,,,0.03,weatherlink.com 1.10,2013-04-01 02:27:00,
2013-03-31 22:42:00,49.3,44.0,29.77,SW,225,6.0,12.0,83,0.00,,,0.03,weatherlink.com 1.10,2013-04-01 02:42:00,
2013-03-31 22:57:00,49.3,44.0,29.77,South,189,5.0,6.0,82,0.00,,,0.03,weatherlink.com 1.10,2013-04-01 02:57:00,
2013-03-31 23:12:00,49.4,44.0,29.77,SSE,156,3.0,7.0,81,0.00,,,0.03,weatherlink.com 1.10,2013-04-01 03:12:00,
2013-03-31 23:27:00,48.8,43.0,29.77,ESE,114,0.0,4.0,81,0.00,,,0.03,weatherlink.com 1.10,2013-04-01 03:27:00,
2013-03-31 23:42:00,48.6,43.0,29.77,South,172,4.0,4.0,82,0.00,,,0.03,weatherlink.com 1.10,2013-04-01 03:42:00,
2013-03-31 23:57:00,48.9,43.0,29.76,SE,143,3.0,8.0,80,0.00,,,0.03,weatherlink.com 1.10,2013-04-01 03:57:00,